Flag for Canada Weather past 2 weeks in Creston, British Columbia, Canada

Now
47 °F

Cool.


Feels Like: 46 °F
Forecast: 46 / 69 °F
Wind: 3 mph from Northeast

Location: Creston

Current Time: Oct 20, 2014 at 4:55:51 AM

Latest Report: Oct 20, 2014 at 4:00 AM


Visibility: N/A

Pressure: 29.85 "Hg

Humidity: 83%

Dew point: 43 °F

Location of CrestonLocation

Historic Weather in Creston — Graph

°F

Creston temperature yesterday

Maximum temperature yesterday: 64 °F (at 2:00 PM)
Minimum temperature yesterday: 47 °F (at 6:00 AM)
Average temperature yesterday: 54 °F

Past Weeks' High & Low Weather Summary

 TemperatureHumidityPressure
High70 °F (Oct 10, 4:00 PM)98% (Oct 16, 2:00 AM)30.23 "Hg (Oct 16, 2:00 AM)
Low35 °F (Oct 17, 8:00 AM)31% (Oct 11, 4:00 PM)29.63 "Hg (Oct 15, 7:00 AM)
Average54 °F73%29.99 "Hg
* Reported Oct 5 3:00 AM — Oct 20 3:00 AM, Creston, Weather by CustomWeather, © 2014

Note: Actual official high and low records may vary slightly from our data, if they occured in-between our weather recording intervals... More about our weather records

Advertising

Creston weather history for previous 24 hours

 ConditionsComfort  
Time TempWeatherWind HumidityBarometerVisibility
3:00 AM
Oct 20
48 °FCool.1 mph91%29.85 "HgN/A
2:00 AM49 °FCool.3 mph83%29.85 "HgN/A
1:00 AM50 °FCool.3 mph86%29.85 "HgN/A
12:00 AM51 °FCool.1 mph90%29.87 "HgN/A
11:00 PM
Oct 19
53 °FCool.3 mph76%29.87 "HgN/A
10:00 PM52 °FCool.2 mph90%29.88 "HgN/A
8:00 PM53 °FCool.3 mph86%29.89 "HgN/A
7:00 PM55 °FCool.3 mph81%29.89 "HgN/A
6:00 PM58 °FCool.1 mph71%29.89 "HgN/A
5:00 PM62 °FMild.1 mph61%29.89 "HgN/A
4:00 PM62 °FMild.3 mph61%29.90 "HgN/A
3:00 PM64 °FMild.1 mph62%29.91 "HgN/A
2:00 PM64 °FMild.3 mph59%29.93 "HgN/A
1:00 PM60 °FCool.3 mph70%29.96 "HgN/A
12:00 PM58 °FCool.3 mph75%30.00 "HgN/A
11:00 AM56 °FCool.2 mph82%30.03 "HgN/A
10:00 AM53 °FCool.2 mph85%30.05 "HgN/A
9:00 AM52 °FCool.2 mph83%30.05 "HgN/A
8:00 AM50 °FCool.6 mph86%30.06 "HgN/A
7:00 AM47 °FCool.3 mph94%30.05 "HgN/A
6:00 AM47 °FCool.2 mph93%30.06 "HgN/A
5:00 AM50 °FCool.7 mph87%30.05 "HgN/A
4:00 AM51 °FCool.5 mph88%30.04 "HgN/A
Weather by CustomWeather, © 2014

See weather overviewHow to use our weather pages